Location: *
(44.3683°N, 6.6958°E)
Time: 01:31:26
(UTC+00:00)

STARLINK-64 - Pass Details

Date: 14 October 2019
Orbit: 545 x 554 km, 53.0° (Epoch: 11 November)

Event Time Altitude Azimuth Distance (km) Brightness Sun altitude
Rises 17:45:28 0° 240° (WSW) 2,719 8.4 -10.4°
Reaches altitude 10° 17:47:42 10° 242° (WSW) 1,829 7.4 -10.8°
Maximum altitude 17:51:52 74° 328° (NNW) 581 3.8 -11.6°
Enters shadow 17:55:37 13° 53° (NE) 1,673 5.6 -12.2°
